Location: Luna
(33.8188°N, 108.9564°W)
Time: 14:44:56
(UTC+00:00)

X-37B - Visible Passes

Search period start: 01 December 2022 00:00
Search period end: 11 December 2022 00:00
Orbit: 277 x 277 km, 45.0° (Epoch: 01 November)

Date Brightness Start Highest point End Pass type
(mag) Time Alt. Az. Time Alt. Az. Time Alt. Az.
05 Dec 2.0 00:57:46 10° S 00:59:28 17° SE 01:00:20 14° ESE visible
06 Dec 0.7 00:57:44 10° SSW 01:00:03 37° SE 01:01:14 21° E visible
07 Dec -0.2 00:58:15 10° WSW 01:00:41 83° NW 01:02:05 22° NE visible
08 Dec 1.0 00:59:06 10° W 01:01:23 36° NNW 01:02:51 18° NNE visible
09 Dec 2.0 01:00:14 10° WNW 01:02:10 20° NNW 01:03:34 13° NNE visible
10 Dec 2.5 01:01:41 10° NW 01:03:00 13° NNW 01:04:15 10° NNE visible
